Wind_Speed
6 4 7 8 7 7 8 9 8 3 3 5 4 3 5 5 8 8 5 5 3 2 6 6 8 9 6 8 11 12 13 12 12 12 12 13 12 13 13 13 14 16 14 14 20 25 27 28 29 29 29 29 30 30 31 32 33 34 34 33 34 33 33 33 33 33 32 31 29 28 28 28 28 28 27 27 27 26 25 24 23 22 20 19 19 19
5 9 10 9 8 7 8 8 8 7 6 6 5 4 5 6 9 10 6 6 3 2 7 7 6 9 7 7 8 10 13 14 16 16 16 16 15 13 14 16 16 13 9 11 16 21 25 27 28 29 28 29 30 31 33 34 35 35 34 35 35 34 34 35 35 34 34 33 32 30 29 28 28 28 29 29 28 27 26 25 24 23 21 20 19 19
6 9 9 9 8 7 7 8 9 8 7 5 5 4 5 5 6 9 7 5 3 3 7 8 7 9 6 8 9 11 14 14 16 18 19 19 17 15 16 16 15 12 10 12 15 18 25 28 29 29 29 31 33 33 34 35 35 34 34 35 34 34 35 36 36 35 35 34 33 31 29 28 28 29 30 29 28 28 27 26 25 24 23 23 22 20
6 7 8 10 9 9 7 7 8 7 5 5 5 4 6 4 2 6 5 3 2 4 5 4 4 6 2 5 9 12 13 9 9 12 12 14 16 17 18 16 15 15 14 15 15 16 21 25 28 29 30 32 33 33 34 35 35 35 36 37 36 37 37 37 37 37 35 33 31 30 29 28 27 28 28 28 28 28 29 28 27 26 25 25 25 23
7 6 7 12 11 12 10 7 8 6 4 5 6 7 7 4 5 7 4 5 5 3 3 2 3 5 2 6 8 10 11 9 8 10 10 11 13 13 12 12 13 14 15 15 16 16 17 21 27 31 33 33 32 33 35 37 37 38 39 40 40 39 38 38 38 37 34 31 30 28 26 24 24 24 24 25 26 28 29 29 28 28 27 26 25 24
9 5 6 11 11 12 12 9 8 7 5 6 8 10 9 5 5 7 4 4 5 5 4 3 2 6 3 6 7 6 9 12 10 11 14 13 12 11 11 12 13 13 13 14 15 16 17 21 27 31 33 32 33 35 38 39 41 41 41 41 41 39 39 38 38 36 35 33 31 29 27 25 23 23 25 26 26 27 29 29 29 28 28 27 25 24
6 6 7 9 10 10 11 10 8 9 6 8 6 8 8 7 7 7 3 1 3 5 5 2 3 5 4 5 7 6 10 15 12 12 15 13 12 13 13 13 13 13 14 13 14 15 16 20 24 27 32 34 35 39 40 40 41 41 40 39 40 40 39 39 38 37 36 35 34 33 33 31 28 27 28 28 27 27 28 28 29 29 28 28 26 25
6 9 8 9 9 9 9 8 9 11 8 7 5 9 8 8 8 8 5 4 5 4 6 2 5 4 6 6 7 7 9 11 12 13 14 13 14 15 15 14 15 15 15 14 15 15 16 19 23 27 33 38 40 42 40 39 40 42 41 40 41 41 40 39 38 38 38 37 36 36 34 32 32 32 30 28 27 27 27 28 29 30 30 29 28 26
8 12 13 13 9 7 8 7 9 12 9 5 6 8 6 7 7 5 5 5 3 1 7 5 5 4 7 6 3 7 9 10 13 16 15 14 16 16 17 16 16 16 16 15 16 17 18 21 27 32 35 40 43 42 40 42 43 43 43 42 41 41 41 40 40 40 40 40 38 36 34 33 33 32 30 28 27 27 27 28 29 30 30 31 30 28
6 11 14 13 9 9 9 7 10 12 9 5 4 4 2 3 2 2 4 3 0 2 9 8 5 4 7 5 2 5 8 11 14 15 15 16 17 17 17 17 17 15 14 15 16 16 18 24 32 36 36 39 40 39 40 43 43 42 42 41 41 42 42 41 41 41 41 41 39 37 36 35 33 31 29 28 27 27 27 28 28 29 30 31 31 30
2 4 9 9 9 11 9 7 9 12 10 4 3 2 2 3 1 1 1 2 1 6 8 8 7 6 6 5 5 5 8 12 12 11 13 15 16 17 16 16 17 15 14 15 16 16 18 26 32 33 33 35 35 35 36 37 37 38 39 40 41 43 43 41 41 42 42 41 40 39 39 38 36 32 29 28 28 28 28 28 29 29 30 30 30 30
5 1 5 5 7 8 7 7 7 8 10 6 3 4 1 4 3 2 2 3 6 8 4 8 8 8 8 6 6 8 10 14 14 13 15 17 19 18 17 17 17 16 15 15 15 15 16 20 24 26 29 31 31 31 32 33 34 35 37 39 40 42 42 41 41 42 42 42 41 41 40 39 37 34 32 32 31 30 30 30 30 29 29 29 29 29
7 5 4 3 5 9 8 6 4 4 7 7 5 6 4 3 2 3 3 2 7 6 2 6 7 5 9 6 7 11 11 13 14 14 16 19 21 19 18 18 16 16 16 15 15 15 15 16 17 20 26 29 29 31 33 34 34 35 36 38 39 41 42 42 41 42 42 42 43 43 42 40 38 36 35 34 33 32 32 31 30 29 30 30 29 29
4 5 5 4 3 8 10 7 5 4 5 8 6 6 7 5 4 6 5 3 4 4 3 4 4 3 6 4 9 13 13 14 15 15 16 18 19 20 20 19 17 17 17 16 16 15 15 16 16 20 26 28 29 33 35 35 35 35 36 38 40 41 42 42 41 42 42 42 44 44 43 41 38 37 37 36 35 33 33 33 31 31 31 32 32 32
7 5 8 10 6 8 12 10 8 7 6 7 6 6 7 7 6 5 4 4 4 3 3 1 3 4 4 4 9 13 14 14 13 14 16 16 16 17 17 16 15 16 17 16 15 16 17 18 18 22 26 29 31 34 35 35 36 36 36 38 40 40 41 42 41 41 42 42 43 43 43 41 39 38 38 37 36 35 35 34 33 32 33 33 34 34
9 8 6 9 7 12 14 9 8 9 5 5 5 5 7 6 5 3 4 6 2 2 3 2 4 5 3 5 6 7 10 11 12 13 14 14 15 14 12 11 13 14 16 15 16 18 19 18 19 22 26 28 31 34 35 36 36 37 37 38 40 41 41 42 42 42 42 42 42 42 42 41 40 38 37 37 37 36 36 35 35 34 34 34 34 34
6 7 2 4 5 12 14 10 9 8 5 3 4 7 6 6 7 4 4 2 1 3 4 3 4 5 3 5 6 6 7 9 11 12 13 15 16 14 11 10 12 14 15 16 17 19 19 18 19 23 27 29 30 32 35 38 40 40 39 38 39 40 40 40 42 42 42 41 41 41 41 41 40 38 37 38 38 36 35 35 35 35 35 35 34 34
3 5 3 6 7 10 9 11 11 10 9 6 6 7 4 6 5 4 2 2 2 5 5 3 5 4 3 6 4 5 8 9 10 11 13 15 15 14 11 10 13 15 16 17 18 17 17 17 18 24 29 31 33 35 37 41 42 42 41 40 39 40 41 42 42 42 42 41 41 40 41 41 40 40 39 38 37 36 35 35 35 35 35 35 35 34
2 3 4 7 11 6 5 8 7 6 8 6 5 7 6 3 4 5 3 4 4 5 4 4 5 5 7 6 2 6 10 10 11 11 12 14 14 13 12 12 14 14 14 15 16 15 15 16 18 23 29 32 35 36 39 41 40 39 40 41 41 42 43 43 41 40 40 40 41 40 41 42 41 40 39 37 36 35 36 37 36 36 36 36 35 34
1 2 5 5 7 6 5 6 6 6 7 3 3 4 4 3 5 5 4 4 4 4 3 4 6 5 7 6 6 9 11 11 11 10 11 14 16 14 13 13 14 13 13 15 16 16 17 18 21 26 31 34 36 37 38 38 36 37 39 40 41 41 41 40 39 39 39 39 40 39 39 40 41 40 39 38 37 36 37 38 37 37 37 36 35 35
2 2 4 3 2 5 3 5 9 10 8 5 4 5 4 2 2 3 2 3 4 4 3 2 6 5 4 5 10 11 11 12 12 11 11 14 15 15 15 15 13 12 13 15 15 16 18 19 20 27 33 34 35 36 35 35 35 38 39 39 41 40 39 39 40 40 39 39 39 39 39 39 40 40 39 38 38 38 38 38 38 38 37 37 36 35
3 1 2 1 2 3 4 7 12 14 13 10 8 8 7 4 4 4 4 3 4 4 4 3 7 8 3 4 9 10 10 11 11 12 11 12 14 14 14 15 13 12 13 15 15 15 17 17 18 23 29 30 30 30 32 33 35 36 37 39 40 39 39 41 41 41 41 39 39 39 39 39 39 40 40 39 39 38 38 38 38 38 37 37 37 36
1 0 1 2 2 3 6 7 8 10 12 12 10 9 9 6 5 6 6 4 4 3 2 3 6 9 5 6 8 8 10 10 10 11 10 11 12 12 12 14 13 12 13 14 14 13 14 15 16 19 23 26 28 30 32 34 34 36 38 39 38 38 41 42 42 42 40 39 39 40 39 39 39 40 40 40 39 38 38 38 37 37 37 37 37 37
2 0 1 3 4 3 6 7 6 4 3 7 8 7 8 8 8 8 6 4 4 4 3 2 7 8 4 5 8 7 8 8 8 9 10 10 9 9 11 12 11 12 13 12 12 11 12 12 12 14 16 20 25 29 31 33 35 36 37 37 38 40 44 43 41 40 38 39 39 39 39 39 39 39 40 40 39 38 38 38 37 37 37 37 37 37
2 1 1 1 2 3 3 6 6 3 0 1 5 5 9 11 11 9 5 3 3 7 8 6 9 7 4 4 5 6 6 7 8 7 8 9 8 7 8 8 9 11 11 10 10 10 11 12 12 13 13 16 22 28 31 33 35 35 36 38 39 42 43 42 40 38 38 38 38 38 39 40 39 39 40 39 39 39 39 39 38 37 37 37 37 38
1 1 2 3 4 6 4 5 5 3 3 3 5 6 8 11 14 10 5 4 6 8 9 7 8 6 5 5 5 6 6 7 9 8 6 7 8 7 7 7 9 10 10 11 11 11 12 12 13 14 14 15 22 27 29 32 34 34 36 38 40 41 40 39 39 37 37 37 37 38 40 40 40 40 40 39 39 39 39 40 39 38 37 38 38 38
1 1 1 3 3 3 2 4 5 3 4 5 8 11 9 9 14 12 8 8 7 6 7 10 9 5 5 5 6 7 7 8 9 9 7 7 8 8 7 7 7 7 9 10 11 10 11 12 13 15 15 16 22 27 29 31 33 34 35 37 39 39 38 37 37 37 37 37 37 38 40 41 41 40 40 40 39 39 40 40 40 39 38 39 39 39
3 2 2 3 2 1 2 9 9 6 5 7 9 12 12 10 11 14 14 9 7 6 11 11 9 8 8 7 8 9 8 7 9 10 9 8 8 7 6 5 5 7 8 8 8 9 11 13 14 15 15 16 20 25 28 30 33 34 36 37 38 38 38 38 38 38 38 37 37 39 40 41 41 40 40 40 40 40 41 40 40 39 39 39 40 41
4 2 2 3 3 4 5 9 11 8 7 8 9 11 13 14 13 15 16 10 9 9 13 10 10 11 8 6 9 10 9 10 11 10 8 6 6 7 6 6 7 8 9 9 10 11 12 14 15 15 16 16 18 22 26 28 31 32 33 35 36 38 40 40 39 40 39 38 40 41 41 40 40 39 39 39 39 40 40 40 39 38 38 40 41 42
2 2 1 1 4 6 6 8 8 7 7 9 11 12 13 14 15 14 13 11 12 12 12 9 10 11 8 8 11 11 10 9 6 4 4 5 6 7 7 8 8 9 9 10 11 11 12 14 16 16 15 14 15 19 24 26 29 31 33 34 36 38 39 38 38 39 39 40 41 40 39 40 39 39 39 39 40 40 40 40 39 38 39 40 42 42
0 1 2 2 3 6 7 6 6 7 10 12 14 13 12 13 13 13 12 11 11 11 11 12 10 8 7 7 8 8 7 3 1 3 6 7 7 6 6 7 9 9 10 10 11 10 10 12 13 13 13 14 16 20 24 27 30 32 33 34 36 38 38 38 38 38 39 41 40 37 38 39 39 38 39 40 40 40 40 39 38 39 40 41 42 41
1 1 1 3 3 5 6 6 9 13 12 12 13 11 10 10 10 10 9 9 11 11 11 14 13 8 6 7 7 8 7 4 6 8 8 7 6 6 7 8 9 10 10 10 8 8 9 11 12 13 14 15 18 21 26 29 29 30 32 35 38 38 37 38 38 38 39 39 36 36 38 39 38 39 39 40 41 41 41 40 39 40 40 41 41 40
2 1 0 1 1 4 6 6 9 12 10 8 6 4 6 9 11 12 11 10 11 10 10 13 11 7 8 8 7 8 10 10 10 8 6 7 5 5 7 9 10 10 9 7 7 7 9 10 11 13 15 15 19 25 32 34 32 34 37 40 40 37 36 37 38 38 38 36 36 38 39 39 39 40 40 41 41 40 40 40 41 41 42 41 40 39
3 3 2 1 2 3 8 7 7 6 5 4 1 1 4 8 7 10 14 13 11 11 10 10 7 6 9 10 10 13 13 10 6 3 3 3 2 3 6 8 9 9 8 7 7 8 9 9 10 11 14 17 23 29 32 34 34 36 38 37 35 35 36 37 38 37 37 36 37 39 39 39 39 40 40 40 40 39 40 41 42 43 42 41 40 39
3 3 3 2 3 3 5 5 3 6 5 6 8 5 4 4 4 7 12 15 14 13 11 9 8 8 8 11 13 14 10 4 3 5 4 3 3 2 4 6 6 7 7 7 7 8 8 8 9 9 11 17 22 24 24 26 29 30 29 30 32 33 35 36 35 36 35 35 36 37 37 38 39 39 39 40 39 39 40 41 41 42 41 40 40 41
5 4 3 2 3 2 1 0 4 6 7 12 11 7 5 3 8 11 8 9 9 7 7 8 10 9 8 10 11 7 6 5 4 4 3 2 3 1 1 4 5 5 6 6 6 8 8 8 10 11 11 14 17 20 22 25 26 25 25 28 31 32 34 34 33 34 33 34 35 37 38 39 38 38 39 39 39 39 40 40 41 42 40 39 39 41
9 5 3 3 4 3 3 4 4 6 10 9 4 3 4 3 5 6 4 7 7 3 5 7 9 10 8 7 6 5 6 5 3 1 1 1 2 0 1 3 4 5 6 6 6 7 8 8 11 13 13 14 17 21 23 25 25 25 25 26 28 29 31 31 31 32 33 34 36 38 39 39 39 39 39 39 39 39 41 42 42 42 40 39 39 39
11 8 5 5 4 4 4 3 3 4 5 4 2 1 1 2 4 2 3 6 7 4 2 4 7 10 7 4 4 5 6 5 3 4 3 2 2 2 2 3 4 4 5 6 7 7 8 7 7 11 14 15 17 21 24 24 25 26 24 24 26 27 28 29 30 32 33 35 37 38 39 40 39 38 38 38 39 40 41 41 42 41 41 40 39 38
13 9 6 5 4 4 5 5 4 4 5 5 3 3 3 3 2 3 1 5 5 9 9 6 7 9 8 8 8 8 7 6 6 6 3 1 2 2 3 4 5 4 5 6 7 7 9 8 4 6 11 13 14 17 20 23 25 24 22 23 26 26 25 27 30 32 35 37 38 37 38 38 38 38 39 40 42 43 42 42 42 40 39 39 38 37
11 8 6 7 6 5 5 5 4 3 5 5 4 6 7 4 2 4 3 5 6 12 12 8 8 9 7 6 9 10 8 7 7 5 2 1 1 2 3 4 5 6 6 8 10 11 11 11 7 3 3 6 11 16 20 22 23 22 21 23 24 24 26 31 34 36 38 37 35 35 36 37 39 41 42 44 44 43 42 41 39 37 37 37 36 34
7 6 7 8 8 7 7 6 3 3 5 4 5 7 7 4 3 4 4 4 9 14 12 8 8 7 5 4 6 7 5 3 4 5 5 4 3 2 3 3 4 5 6 8 12 13 14 15 14 11 11 7 4 13 20 23 22 20 20 20 20 24 31 35 35 34 33 31 31 33 36 38 40 43 44 44 42 39 37 36 35 35 35 34 33 31
5 4 6 8 8 7 6 4 3 3 3 2 3 4 4 2 2 3 5 7 10 12 12 10 9 7 4 2 2 2 3 5 7 6 5 4 3 3 4 3 3 4 6 8 12 14 13 14 14 15 16 15 9 3 13 19 19 17 17 17 21 28 30 27 24 25 25 26 29 32 35 38 40 41 41 39 37 35 34 33 32 33 33 32 31 31
2 2 4 7 7 6 5 6 5 5 3 2 3 1 3 1 2 5 8 8 7 9 11 9 8 8 6 5 4 5 2 6 7 6 5 5 4 4 4 4 5 6 7 8 11 13 12 11 11 13 17 19 18 13 4 6 10 12 14 17 23 27 24 19 19 21 22 24 27 30 33 36 38 38 37 36 35 34 33 32 32 33 33 33 33 32
3 3 2 3 5 4 5 6 5 4 4 3 2 2 2 1 3 5 8 8 4 5 7 7 7 8 7 6 4 5 5 4 3 3 4 5 6 6 6 7 8 8 8 9 10 12 13 11 10 13 18 21 21 20 16 10 5 1 5 9 12 15 19 23 23 22 23 26 29 31 33 34 35 35 35 36 36 36 35 35 35 35 34 35 34 33
3 1 3 4 4 4 5 6 3 3 4 3 2 4 3 1 3 5 7 7 4 4 4 5 6 8 8 5 4 3 5 6 5 4 5 7 8 8 8 8 9 9 9 11 12 14 14 13 11 13 18 21 21 21 20 19 16 12 9 10 11 9 12 20 22 24 26 29 30 33 34 34 34 36 36 36 36 36 36 36 35 34 35 37 37 36
5 6 5 4 5 7 8 8 5 3 3 3 4 5 6 4 4 5 6 6 4 4 5 3 4 6 7 5 6 6 6 7 8 8 8 8 9 8 7 8 9 10 11 12 13 15 15 14 13 13 15 18 21 21 20 20 18 16 15 15 13 9 6 9 14 19 24 27 30 33 33 32 33 35 36 37 37 38 37 37 36 35 36 36 37 36
4 4 4 5 7 6 5 5 3 3 3 4 4 5 7 6 4 4 4 5 4 4 5 5 4 5 5 6 7 8 8 8 8 8 8 7 7 7 8 8 7 8 10 11 13 15 16 13 12 13 13 14 17 19 19 20 19 18 18 19 17 13 9 6 6 8 11 14 19 24 28 31 32 33 34 35 36 37 36 36 36 36 35 35 34 33
2 5 7 7 7 6 7 8 3 2 3 3 3 4 6 4 4 5 3 5 5 4 5 5 5 5 5 6 5 5 6 6 6 6 7 7 6 6 7 7 7 7 9 10 12 15 15 13 12 12 12 12 15 17 17 17 18 19 20 20 19 18 15 13 12 11 11 11 11 11 14 20 24 27 31 33 35 35 34 35 37 37 37 39 39 35
5 6 6 7 8 8 11 11 6 2 1 3 5 5 6 5 3 6 4 3 5 5 5 5 5 5 5 6 5 3 5 5 4 5 5 6 5 5 5 6 7 8 8 10 12 13 13 11 10 10 11 12 15 17 18 18 18 18 19 19 19 19 18 17 16 15 14 14 14 13 11 12 14 17 21 26 31 35 38 38 39 39 41 45 48 47
4 7 7 6 7 8 8 8 7 4 2 3 5 6 7 6 0 5 4 6 7 7 6 6 6 6 7 6 7 3 4 5 5 5 5 5 5 5 4 5 7 8 9 10 12 13 13 12 11 11 11 13 16 17 18 19 20 20 20 19 19 18 18 17 16 15 14 14 13 13 12 10 11 13 16 20 24 29 34 37 37 36 35 37 42 47
5 8 7 5 7 9 9 10 9 5 4 5 6 6 7 7 3 2 4 6 6 7 7 7 7 8 9 8 8 6 2 6 7 5 4 4 5 4 4 6 7 8 10 11 12 12 13 13 12 12 13 15 17 17 17 18 20 20 20 19 18 17 17 17 15 14 12 12 11 11 10 9 10 11 14 19 21 22 25 27 29 28 26 27 30 36
Wind_Direction
158 188 213 209 209 201 201 207 214 208 163 198 195 195 225 244 263 262 273 276 268 292 270 246 240 245 215 192 194 181 177 180 179 178 182 186 188 192 197 197 197 204 206 195 194 196 196 197 197 196 196 195 197 199 200 200 202 203 203 203 206 208 209 210 210 211 212 213 215 218 221 224 228 231 234 236 236 235 235 235 237 240 242 247 250 250
166 205 221 208 199 194 193 196 200 204 206 223 231 243 251 245 261 270 270 272 276 291 277 270 260 257 227 197 198 181 180 187 185 183 187 189 191 195 198 200 201 203 191 182 194 196 195 197 197 197 197 195 196 198 200 201 203 204 204 205 206 206 207 210 211 210 211 213 214 216 218 222 226 229 231 233 233 234 235 237 238 240 242 245 248 248
201 222 212 194 187 182 191 186 181 193 194 205 219 227 249 241 267 283 269 255 240 220 271 274 254 258 234 178 185 192 195 199 194 190 189 188 189 194 198 201 199 192 184 189 195 194 194 195 195 197 198 198 199 199 200 203 204 204 205 207 207 207 208 210 211 212 213 215 216 217 220 222 225 228 231 233 234 234 236 238 240 240 241 243 246 247
210 236 195 177 177 180 195 187 173 186 192 194 192 198 240 230 206 270 279 308 264 213 254 274 258 280 283 163 186 200 204 211 212 209 203 193 193 197 199 199 195 189 190 194 194 194 194 194 193 196 199 200 200 200 201 203 203 204 206 208 208 209 210 210 211 213 214 215 216 219 222 225 227 230 233 235 236 236 237 239 239 239 240 242 245 245
222 253 179 165 177 188 202 200 173 185 217 213 199 208 236 215 197 242 290 337 317 285 260 264 324 309 237 191 206 200 198 209 212 210 216 210 204 207 205 204 201 195 195 195 194 194 193 193 195 197 199 199 199 201 202 202 203 205 207 209 209 210 210 211 212 212 212 212 214 216 218 222 226 228 231 232 232 233 235 237 238 237 239 243 245 243
231 237 150 160 180 188 200 211 189 182 219 239 217 213 219 196 211 248 296 336 324 311 272 217 280 295 256 217 222 190 190 207 205 203 211 209 202 206 208 207 205 202 201 201 200 197 194 195 197 198 199 198 200 203 204 204 205 207 208 209 209 210 210 211 212 211 210 210 210 210 209 212 215 219 223 225 225 226 229 233 235 235 237 243 245 241
214 182 148 168 182 183 198 217 198 172 206 248 214 188 199 195 213 237 235 259 264 264 268 178 181 273 305 260 231 189 194 208 204 207 213 208 202 205 208 206 203 202 201 203 206 203 200 199 198 199 200 199 201 204 204 204 206 207 208 209 209 210 210 211 211 210 209 209 209 210 210 210 212 216 221 224 226 227 228 231 232 233 237 242 243 241
162 168 174 177 176 184 201 216 192 169 201 238 141 135 170 186 208 220 197 208 230 252 276 208 168 252 285 257 224 183 197 218 215 217 216 208 207 207 210 209 204 203 200 200 203 202 203 202 201 203 202 202 204 205 203 203 205 207 208 208 208 209 210 210 210 209 209 209 209 210 211 213 215 218 222 224 225 227 229 231 231 234 238 240 241 242
154 177 190 183 181 198 204 207 182 171 202 219 130 136 156 166 195 192 175 217 233 266 273 243 167 225 267 269 243 174 189 220 221 222 221 213 211 209 210 211 207 206 203 201 202 202 203 202 204 206 205 206 207 205 202 202 205 206 206 207 208 208 209 209 209 209 210 210 210 211 211 214 217 220 222 223 225 226 228 231 233 236 238 239 240 242
169 192 190 181 192 211 208 199 176 178 203 210 164 178 172 175 195 144 170 212 158 224 253 247 169 206 267 274 237 180 193 216 219 220 220 215 214 212 210 211 209 207 205 205 205 204 206 205 206 207 208 209 210 207 204 205 204 204 205 206 207 208 208 208 208 208 209 210 210 211 212 214 216 217 219 221 223 224 225 228 232 234 235 236 238 240
236 195 177 181 203 208 202 194 187 186 190 179 159 172 331 306 354 43 137 99 288 254 242 227 182 187 262 249 190 191 200 206 211 218 221 220 218 216 212 210 209 207 205 206 206 206 208 210 211 209 209 212 211 209 209 208 206 204 204 204 206 209 208 208 208 207 208 208 209 211 212 214 214 213 214 215 218 220 221 224 227 230 232 234 236 238
258 175 167 210 206 184 174 198 207 185 181 184 160 133 336 316 349 327 5 92 236 254 221 200 175 172 238 242 197 211 206 197 203 210 214 217 218 216 212 209 208 206 205 204 205 207 206 210 213 210 211 213 210 210 210 209 208 206 205 204 206 209 208 207 207 207 207 207 208 211 213 214 214 212 211 212 215 216 217 220 223 225 228 230 232 233
233 220 209 236 200 168 158 191 207 160 171 185 167 145 183 269 301 234 233 193 233 259 232 184 158 183 238 235 203 215 215 206 206 210 211 214 217 215 211 209 206 203 204 203 204 206 204 205 208 206 209 210 207 207 210 209 208 207 206 206 206 208 208 207 207 207 207 207 208 210 212 214 213 212 212 213 215 216 217 219 219 219 222 224 226 228
225 243 225 208 201 173 167 178 190 176 176 180 170 155 176 204 219 219 232 255 248 268 264 175 146 236 266 248 205 204 212 213 209 213 216 216 217 215 213 209 203 200 201 204 204 203 205 206 204 203 206 206 204 205 207 208 207 207 207 206 207 209 209 207 207 207 207 207 209 210 212 213 212 211 212 214 216 216 218 219 219 219 221 222 224 228
200 233 215 202 196 168 180 193 176 150 166 182 153 139 180 196 188 196 208 224 237 263 280 184 166 216 233 242 219 200 206 211 207 214 218 220 222 219 217 210 200 201 202 202 204 204 207 206 203 203 205 205 203 204 205 206 207 207 207 207 208 210 209 207 207 207 207 208 209 211 212 212 212 212 212 214 216 217 218 220 220 222 224 225 228 231
203 234 227 203 182 164 182 195 151 128 162 190 125 137 207 189 157 207 206 181 174 313 277 218 212 222 214 261 257 218 216 212 207 217 217 224 230 224 222 208 197 204 204 201 203 206 208 206 203 204 205 206 205 203 203 204 205 206 207 208 208 210 210 208 207 208 208 209 210 211 212 212 212 212 212 214 216 217 218 220 221 224 227 229 231 233
192 235 225 134 169 186 183 174 163 163 171 168 157 185 195 142 145 228 247 172 88 271 256 223 256 290 298 277 261 214 219 218 211 218 218 223 230 226 220 203 200 205 203 202 205 206 206 202 202 204 206 207 205 203 203 204 205 206 207 207 208 210 210 209 209 208 209 209 210 211 212 213 213 212 213 214 215 216 217 219 222 224 228 230 232 233
181 253 236 144 191 219 181 158 177 179 149 138 192 192 123 95 152 191 249 284 251 256 275 245 247 270 251 265 263 186 202 218 213 213 217 225 231 230 221 206 205 206 202 205 206 207 205 201 202 204 205 207 205 204 204 205 206 206 206 207 208 209 210 210 209 208 209 209 209 211 212 213 213 213 214 215 215 216 216 219 221 223 226 230 232 232
207 264 267 191 194 205 135 149 187 196 174 167 182 172 134 135 183 170 201 232 220 246 280 280 272 246 212 232 241 192 207 215 214 209 212 222 228 230 226 216 212 206 202 205 206 207 204 201 204 203 204 207 207 206 206 207 206 205 206 208 209 211 212 211 210 209 209 209 209 211 212 213 213 214 214 215 215 215 215 218 220 221 224 228 230 230
247 199 264 244 188 155 126 164 190 210 224 216 129 162 166 168 177 172 184 181 187 235 260 301 303 257 212 196 174 201 217 213 213 211 209 216 220 222 223 222 216 205 201 204 204 205 203 202 204 203 204 205 205 206 207 206 205 204 207 208 210 213 213 212 211 210 209 209 210 211 212 212 213 213 214 214 214 214 216 218 220 220 222 225 227 227
344 198 251 296 148 146 157 197 190 189 209 210 185 197 196 168 163 174 202 168 166 202 203 256 280 256 217 185 178 196 215 212 209 207 210 217 217 217 218 221 218 204 203 209 206 203 203 204 204 203 205 206 204 206 206 205 204 205 207 208 209 211 211 211 212 211 210 209 210 210 211 211 212 212 213 214 214 215 216 218 219 220 221 223 224 225
16 289 254 272 179 186 217 215 197 192 195 190 195 204 194 180 137 156 237 236 174 193 182 192 259 261 241 191 186 192 207 215 212 207 212 219 218 217 218 221 218 206 206 210 208 204 203 203 204 203 203 203 203 204 204 204 205 206 207 208 209 209 210 212 212 211 210 209 209 210 210 211 211 212 213 213 214 215 216 217 219 219 219 220 222 223
15 43 238 244 234 233 247 240 218 215 208 197 201 200 188 181 149 168 224 226 195 225 147 137 260 267 243 193 190 194 203 213 214 208 213 224 223 219 219 222 219 213 213 213 208 205 203 203 203 201 200 200 200 201 201 202 203 205 207 207 207 208 211 213 212 211 210 208 209 210 210 210 211 211 212 212 213 214 215 217 218 218 218 219 220 221
328 336 254 298 314 298 278 286 296 283 214 208 222 202 183 191 186 197 211 175 186 222 151 171 252 263 266 210 202 212 216 217 222 214 214 226 229 220 221 222 218 218 222 216 208 204 204 203 198 197 198 198 199 200 200 201 203 205 206 205 205 209 212 212 212 211 208 208 209 209 209 210 210 211 211 211 212 213 214 216 217 217 217 218 219 220
322 327 71 39 274 248 260 274 280 291 54 257 259 220 200 194 191 209 213 143 204 207 172 195 240 243 283 283 237 248 258 253 249 233 219 230 238 230 224 218 214 223 227 217 206 202 200 197 193 196 198 196 198 200 199 201 203 204 204 204 205 209 212 211 210 209 208 207 207 207 208 209 210 211 211 211 211 212 214 215 216 217 216 217 218 220
247 287 91 122 202 212 209 216 227 268 311 325 311 276 228 196 189 199 199 188 224 206 175 203 241 254 293 285 243 250 264 263 261 255 243 245 248 239 224 214 211 218 221 212 206 201 197 196 197 197 197 197 198 199 200 201 202 202 203 204 206 209 210 209 209 208 207 207 206 207 208 209 209 210 210 210 211 211 213 215 215 215 215 215 217 219
109 15 48 119 157 181 219 248 243 280 296 296 305 301 282 228 200 195 204 210 201 180 199 222 224 234 264 248 227 234 237 243 255 260 256 250 250 243 229 226 227 225 224 216 208 203 197 197 201 199 197 198 198 199 200 201 200 201 202 204 206 207 208 207 207 207 207 206 206 207 208 208 209 210 209 210 210 211 213 214 214 214 213 214 216 218
85 357 318 102 100 157 274 279 277 277 265 263 279 286 287 273 227 208 218 210 150 167 229 232 206 212 242 240 228 227 221 231 247 251 251 246 243 248 251 255 255 249 243 228 212 205 198 199 203 202 200 198 196 198 199 201 202 201 202 203 203 204 205 205 205 205 206 205 206 208 208 209 210 209 209 210 210 211 213 213 214 213 213 213 216 218
108 263 282 73 343 290 269 278 281 279 261 252 262 269 277 280 257 233 229 206 165 203 238 233 204 209 227 233 234 230 213 216 229 231 236 240 237 245 253 253 249 244 241 232 217 206 200 202 204 202 201 197 193 195 196 199 202 201 203 204 202 202 204 203 202 203 204 204 206 207 207 208 209 209 209 209 210 211 212 213 213 212 212 213 215 218
125 255 287 44 326 300 284 277 277 286 286 277 273 268 265 269 265 258 249 226 208 222 240 233 207 204 211 211 219 228 222 218 227 219 208 227 234 235 239 247 252 249 241 236 229 216 206 207 206 204 201 195 192 194 194 196 198 199 202 202 201 203 204 202 201 202 202 205 207 206 205 206 207 207 207 208 209 210 211 212 212 211 211 213 216 218
43 309 321 33 347 303 293 293 289 295 296 287 279 269 262 268 272 268 258 241 229 228 235 240 226 216 235 230 221 239 247 228 222 225 221 229 236 236 241 249 252 252 248 240 236 230 221 216 212 205 198 195 196 195 193 195 197 198 201 201 201 203 202 200 201 202 204 207 206 203 203 205 205 205 206 207 208 209 210 210 210 210 211 213 215 217
315 275 348 37 0 291 290 314 317 314 307 286 272 269 266 262 261 260 247 230 227 221 225 239 237 227 243 251 251 267 275 253 226 228 234 242 241 230 234 244 245 247 249 245 240 237 229 223 216 206 200 199 198 195 194 196 195 196 200 201 202 203 200 199 201 203 205 207 204 201 203 203 203 204 205 206 207 207 208 208 209 210 211 213 214 215
228 212 316 51 330 285 289 308 322 324 313 284 262 266 273 260 247 247 245 234 226 211 213 233 233 208 204 214 231 255 261 258 250 237 232 247 256 247 241 246 251 253 254 248 239 232 225 221 215 209 207 203 197 197 197 195 193 196 200 200 201 199 196 198 201 203 205 204 201 201 202 201 201 203 205 206 207 206 206 207 208 210 211 212 213 213
235 215 221 169 139 273 288 314 330 306 269 270 282 141 256 268 267 258 252 245 231 213 223 246 242 207 195 189 200 222 234 247 250 204 182 217 249 275 271 268 268 272 274 259 241 235 228 222 218 214 212 209 205 204 202 198 197 200 201 199 197 196 195 198 200 202 203 202 201 202 202 200 201 203 204 206 206 205 206 207 208 210 211 211 211 211
250 228 224 175 144 246 296 346 320 240 243 312 331 334 272 263 355 324 269 249 239 229 233 250 250 231 205 191 203 216 213 182 118 109 110 140 172 215 277 286 285 284 283 273 261 253 238 222 216 214 212 212 209 205 203 203 203 202 199 196 195 195 196 198 200 202 202 201 201 201 200 200 202 202 204 206 205 205 206 208 209 210 210 210 210 211
215 220 227 196 169 195 319 348 236 248 305 319 319 338 343 348 13 356 306 263 262 245 221 231 242 239 217 209 215 206 161 128 102 96 106 112 122 145 269 293 303 306 298 290 278 264 252 233 217 209 207 206 202 197 199 202 202 198 196 196 195 195 197 198 200 202 201 200 201 201 201 201 201 201 203 204 204 205 207 208 210 211 210 210 211 212
201 207 215 211 197 178 196 231 260 304 320 314 313 25 19 348 344 336 288 280 293 256 199 217 236 238 232 225 216 172 137 118 88 97 191 48 54 70 272 285 297 305 301 295 285 275 274 260 231 211 197 190 189 192 196 198 195 192 192 195 195 195 196 198 201 201 200 200 201 201 201 201 200 201 202 203 204 206 207 209 211 211 210 210 211 212
199 206 210 217 208 175 187 235 283 301 285 260 206 137 146 266 266 215 213 281 300 310 273 238 235 237 230 206 183 160 138 130 163 210 232 327 1 3 346 317 301 299 297 304 311 314 318 308 257 212 191 183 187 194 194 192 189 189 190 191 193 195 197 200 204 203 201 203 203 202 202 201 200 201 201 203 205 207 208 209 211 211 210 210 211 212
200 214 234 256 242 181 175 201 213 236 246 240 249 272 291 292 251 130 165 275 314 352 341 299 263 250 222 181 164 154 147 171 209 226 236 293 354 15 3 334 326 317 306 324 343 338 337 342 317 205 185 178 184 190 190 189 187 187 189 191 192 194 198 204 206 205 204 206 205 203 202 201 201 202 202 205 208 209 209 210 211 211 211 211 213 214
196 209 226 246 248 216 197 208 209 229 251 262 301 319 320 330 89 128 220 263 318 340 331 310 292 278 250 201 170 163 175 197 201 197 183 126 66 42 20 351 342 335 329 347 2 3 9 24 41 77 135 166 183 186 186 186 185 186 192 194 191 194 202 207 209 208 208 208 205 202 201 201 202 203 205 208 209 210 210 210 210 209 210 211 214 215
197 203 210 225 238 231 219 224 237 243 249 272 310 314 319 353 93 166 217 281 319 321 320 324 318 302 281 246 203 185 192 182 133 127 122 102 89 65 32 10 358 1 0 3 8 14 28 42 51 51 40 38 171 187 184 182 183 189 194 193 195 203 208 210 211 211 211 208 204 202 202 203 205 207 208 210 211 211 212 211 209 209 209 209 211 213
194 195 209 215 228 236 226 223 244 248 242 254 282 306 348 44 173 239 290 312 316 319 326 334 331 329 335 315 284 256 147 115 101 106 112 101 97 78 38 28 44 40 35 28 21 23 32 41 45 44 36 33 42 153 187 184 183 188 189 192 206 214 214 213 213 213 212 209 206 205 205 206 208 210 211 211 210 210 211 211 210 209 208 207 208 210
218 223 226 208 213 230 224 218 226 222 213 218 233 326 33 67 237 294 310 307 319 337 336 335 339 343 3 39 14 342 56 104 98 103 107 89 84 82 51 39 50 45 42 43 34 31 37 41 42 41 35 35 42 48 71 182 190 193 193 203 218 220 216 215 216 215 213 210 208 209 210 211 212 211 211 211 209 208 209 209 208 208 207 205 205 206
224 210 238 223 215 210 207 219 220 182 172 201 202 141 114 210 275 298 298 296 329 1 340 332 342 345 3 45 37 344 350 32 57 99 104 79 68 67 58 49 48 44 43 47 43 40 42 45 45 44 40 38 41 43 43 41 33 268 221 238 251 241 225 219 217 214 211 210 209 212 214 215 215 214 213 211 208 206 207 205 204 205 205 204 203 204
238 249 314 293 268 261 254 252 242 147 147 165 150 133 124 66 317 309 300 299 322 3 348 338 345 344 353 26 52 31 2 354 354 18 55 65 61 56 53 49 45 45 45 47 47 46 49 53 53 50 45 39 36 38 40 40 37 28 3 339 329 300 244 227 220 213 210 209 210 212 214 215 215 214 214 212 209 207 206 204 202 201 202 203 203 204
286 305 306 284 287 298 279 247 213 153 141 150 147 130 101 62 349 324 314 304 316 346 339 336 359 354 352 14 50 57 29 360 357 7 21 43 50 47 46 44 38 38 40 43 44 42 45 53 56 54 50 42 36 35 37 38 40 33 16 6 1 346 298 252 234 223 217 214 213 214 214 214 214 214 213 212 210 209 208 205 202 201 202 203 205 208
295 330 326 286 281 287 268 234 184 155 167 155 131 108 86 55 349 323 311 300 314 344 330 326 357 8 6 21 42 55 45 22 10 1 356 9 27 32 39 42 36 32 33 37 40 39 40 44 44 43 46 42 37 37 38 37 37 31 22 18 14 6 357 343 305 272 254 241 231 225 219 216 215 213 212 212 211 211 211 209 206 206 205 205 206 210
322 358 346 306 277 266 276 289 296 154 162 135 111 96 82 56 329 305 290 291 312 346 344 344 2 12 11 13 25 54 61 45 27 9 353 350 0 16 34 42 40 36 34 36 41 44 45 45 41 37 37 33 30 34 38 38 35 30 25 21 16 12 11 10 2 350 337 325 308 281 251 236 229 221 214 211 211 211 211 210 210 210 210 209 208 207
291 307 298 281 279 286 290 286 269 191 113 102 120 119 103 98 296 292 299 329 337 344 355 7 19 26 16 351 340 35 66 60 39 17 356 347 352 3 26 45 49 48 42 40 45 49 50 50 49 45 37 25 21 23 28 31 31 30 29 26 22 22 22 19 14 9 2 352 344 335 318 291 269 250 232 221 215 213 214 213 213 214 217 216 214 211
268 271 258 252 267 271 268 260 239 213 211 160 145 131 114 114 234 302 341 16 358 341 347 2 13 30 30 351 319 334 70 67 42 14 351 342 340 347 16 43 53 54 50 48 52 54 54 52 48 44 37 27 23 25 26 26 27 29 29 26 24 27 30 30 28 26 21 14 6 355 340 317 293 272 255 242 231 225 222 219 217 219 224 226 224 220
221 252 255 248 255 260 268 276 273 249 195 169 156 138 125 123 118 351 11 23 2 336 340 3 13 18 17 350 317 310 43 65 48 17 339 317 309 325 20 45 54 56 53 52 56 59 58 55 48 43 38 33 32 33 31 29 29 29 29 28 25 25 28 32 37 40 36 28 21 7 350 330 305 283 263 252 247 242 236 230 226 226 230 234 234 229
Height
748 761 764 761 761 759 759 759 760 760 760 764 769 771 772 773 769 758 754 747 742 753 752 746 749 747 747 750 745 744 744 748 753 755 758 759 760 762 763 763 761 761 760 762 766 768 770 773 775 779 781 784 786 788 790 792 794 795 798 800 801 804 807 809 811 813 815 817 819 821 823 824 826 829 830 831 833 834 836 837 839 840 841 842 843 844
749 759 757 752 753 752 753 755 757 759 759 763 767 771 772 773 767 755 753 747 741 753 753 744 748 746 744 748 746 745 747 747 748 752 754 754 756 757 759 760 758 758 760 763 765 766 769 772 774 777 779 781 783 784 787 788 790 793 795 797 799 802 804 806 808 810 812 814 816 818 820 822 825 826 828 829 831 832 834 836 837 839 840 841 841 842
756 754 747 745 747 748 750 751 754 757 759 763 766 771 774 769 764 756 750 746 744 753 753 745 749 746 739 743 745 745 745 742 740 741 743 745 750 753 754 755 755 757 761 762 762 763 765 768 771 774 776 778 779 781 784 786 788 791 793 795 797 799 801 803 805 807 809 811 814 817 819 821 823 824 826 827 829 831 833 834 835 837 838 839 839 841
759 749 739 740 742 746 751 751 753 756 758 762 764 771 771 763 766 764 753 747 745 748 749 747 750 748 743 744 743 741 740 741 741 740 740 741 744 746 746 748 750 754 757 758 759 760 762 765 768 770 771 773 776 778 780 783 786 787 789 791 793 796 797 800 802 804 807 811 814 816 818 820 822 823 825 827 828 829 831 832 833 834 836 837 838 839
749 738 731 735 739 744 750 751 753 757 760 760 760 764 765 761 763 762 756 750 746 745 743 746 756 752 747 750 745 739 739 741 741 743 744 742 742 744 745 747 749 750 752 754 756 756 758 760 762 764 766 770 772 774 775 778 780 782 784 786 788 791 794 796 799 802 806 809 813 815 818 820 821 822 823 824 825 827 828 830 831 832 834 835 836 838
740 732 729 736 739 741 748 750 751 754 760 761 755 753 756 759 759 758 757 756 759 761 745 747 768 763 747 749 747 741 743 743 740 741 742 741 742 745 747 747 747 747 749 751 752 752 753 755 757 760 763 766 768 769 770 772 775 777 779 782 785 788 791 793 796 800 804 806 809 811 813 815 817 819 819 820 822 824 826 827 829 831 832 833 835 836
733 729 730 736 740 741 746 748 746 747 759 762 748 743 750 754 756 757 757 761 769 769 748 744 768 770 753 747 744 742 745 743 740 740 739 739 741 742 743 743 743 744 745 748 750 751 752 753 754 757 759 761 762 762 765 768 771 774 776 779 782 785 787 790 794 797 800 802 805 807 808 810 813 814 815 817 820 822 824 826 827 829 830 832 833 835
725 729 733 734 738 743 746 745 740 740 755 757 739 738 747 751 755 756 757 763 762 759 751 744 755 768 761 745 738 741 746 747 743 741 738 736 737 737 738 738 738 739 740 743 746 748 749 750 751 752 753 754 755 756 761 764 767 769 772 775 778 781 784 787 791 794 796 798 800 803 805 807 809 810 812 815 818 820 822 824 826 827 829 830 831 833
717 727 730 731 738 742 740 737 733 735 747 745 734 736 743 746 750 751 755 760 757 760 764 751 750 768 765 741 734 740 746 749 745 739 737 734 733 732 733 734 733 734 735 737 740 742 743 744 745 747 748 749 750 753 756 758 761 764 767 771 774 777 780 783 787 790 792 795 797 800 803 804 806 808 811 814 816 818 820 821 823 825 827 828 830 831
715 717 717 725 734 735 730 727 726 732 740 736 731 736 740 743 746 749 755 757 759 768 769 754 751 767 764 740 736 746 747 744 738 732 730 727 726 727 727 728 729 730 732 733 735 737 738 739 739 741 744 746 748 751 753 754 756 760 763 767 770 772 775 779 782 785 788 791 794 797 799 800 803 806 809 812 813 815 817 819 821 822 824 826 828 829
711 707 710 718 722 720 721 723 723 726 731 730 733 740 745 746 746 751 753 755 768 772 759 749 747 760 764 742 733 738 734 729 729 728 726 723 722 722 721 723 724 725 727 729 731 732 734 736 737 739 742 744 748 751 753 754 756 758 761 764 766 768 772 775 778 781 784 787 790 792 794 796 799 803 806 808 810 812 814 816 817 819 822 824 826 827
712 713 714 710 707 710 717 722 722 722 725 729 736 744 754 758 755 759 760 763 777 772 749 740 741 754 761 741 724 722 715 713 718 719 719 718 716 714 714 715 716 719 721 724 728 729 731 734 736 739 740 742 747 750 752 753 755 757 759 761 763 765 768 771 775 777 780 784 786 788 791 793 796 800 802 804 806 808 810 812 814 817 819 821 823 825
718 715 712 706 702 704 717 727 728 727 727 733 740 748 766 777 775 776 776 772 775 766 745 737 743 751 745 725 713 712 709 707 706 705 706 706 706 705 706 707 709 712 716 719 722 724 727 729 730 733 736 738 743 746 747 750 752 754 755 757 759 761 764 768 771 774 777 779 782 784 787 789 792 796 799 801 803 805 807 810 812 814 816 818 820 822
727 718 709 709 706 700 709 724 732 734 733 736 741 750 767 781 788 791 783 774 769 759 743 738 745 745 731 714 703 701 701 700 696 696 695 695 696 697 696 697 701 705 709 712 715 719 720 721 723 726 729 733 736 739 743 746 748 750 752 754 755 757 760 764 767 770 773 775 778 780 783 786 789 792 795 797 799 802 805 807 809 811 813 814 816 818
733 729 711 706 705 698 703 710 716 724 731 733 732 740 753 760 772 781 777 772 767 756 748 748 747 737 723 710 695 689 689 688 689 689 687 688 687 687 688 692 698 701 703 706 709 712 713 713 717 721 723 727 730 733 737 741 744 746 748 750 751 753 756 760 763 766 769 772 774 777 780 783 785 788 791 794 796 799 801 804 806 808 810 811 813 814
726 722 698 691 694 693 699 701 701 714 729 729 725 735 744 738 743 756 758 755 757 758 756 751 739 721 710 701 690 688 688 685 687 686 686 688 684 684 688 692 696 698 697 701 703 705 706 708 712 716 719 722 724 728 731 734 738 741 743 745 747 749 752 755 759 762 765 768 771 774 777 779 782 785 788 790 793 795 798 800 803 805 807 809 810 812
723 715 691 690 694 689 691 695 695 706 722 728 729 732 727 719 728 748 755 747 750 765 759 743 732 717 709 701 688 688 692 688 688 688 687 687 682 683 688 689 691 692 692 695 695 696 699 702 707 710 713 716 719 723 726 728 731 734 737 741 744 746 749 752 755 758 761 765 768 771 773 776 779 782 784 786 789 792 795 797 799 801 804 806 808 809
713 711 692 690 697 690 683 689 693 694 704 721 729 720 713 719 726 740 757 757 758 769 757 737 732 725 720 712 694 690 694 691 689 689 686 684 682 683 684 684 685 684 685 688 688 691 694 697 701 703 706 710 713 716 718 721 724 728 732 736 739 742 744 746 749 753 757 760 764 767 769 773 775 778 781 783 786 790 792 794 796 798 800 802 804 806
702 711 699 685 690 690 683 693 704 698 693 704 710 703 710 733 739 740 754 761 765 771 756 739 733 725 718 711 698 695 694 689 688 688 686 685 683 681 680 679 679 679 682 684 685 688 690 692 694 696 700 704 707 711 713 716 720 724 728 731 734 736 738 742 746 750 754 757 760 762 765 769 772 775 778 781 784 786 788 790 792 794 796 798 801 803
697 710 709 688 683 690 690 699 712 710 699 697 702 703 705 719 729 734 740 743 754 764 757 747 736 718 703 695 690 692 688 683 685 686 685 682 677 675 674 673 673 675 677 678 678 680 682 684 686 689 693 696 701 705 708 712 717 721 724 727 729 732 735 740 743 746 750 753 756 759 762 765 768 771 775 777 780 782 783 786 788 790 792 795 797 799
697 705 712 696 686 694 700 699 701 704 704 705 711 713 711 711 714 724 729 725 734 749 753 753 741 710 688 682 678 678 677 675 678 678 678 676 671 669 668 665 666 669 671 671 671 673 675 677 679 682 687 690 695 700 704 709 712 715 718 721 724 727 731 735 738 741 745 748 752 755 758 761 764 768 771 773 776 777 779 782 784 786 789 791 793 795
711 714 715 704 696 700 698 689 683 686 690 696 705 707 708 711 714 729 738 724 719 730 735 743 738 703 678 675 671 667 668 667 669 671 671 670 667 665 663 660 660 663 665 665 665 667 669 671 674 677 682 687 692 696 701 704 707 710 713 716 719 723 726 728 731 735 739 744 748 751 754 757 760 763 766 769 771 773 776 778 780 783 785 787 789 791
720 726 722 710 701 697 690 680 677 678 678 682 690 693 697 705 709 725 737 725 718 724 722 729 731 698 670 669 666 661 660 658 661 665 665 664 663 662 661 658 657 658 658 659 660 662 665 666 669 673 678 683 687 690 694 698 701 704 707 711 715 718 720 722 726 730 735 740 743 746 750 753 756 759 761 764 767 769 772 775 777 780 782 784 786 788
720 725 723 714 703 694 686 680 677 677 681 686 687 685 692 698 698 704 712 714 718 721 720 731 731 697 668 666 665 660 657 656 658 661 661 660 659 659 659 656 656 656 654 655 657 659 661 663 668 672 676 679 682 685 689 692 695 698 701 706 710 712 713 717 721 726 731 735 738 742 746 749 751 754 756 759 762 765 768 771 774 776 778 781 783 785
724 725 725 722 718 711 703 697 691 684 688 697 694 686 686 689 692 695 700 710 717 713 713 726 723 692 669 667 668 665 663 660 659 660 660 659 656 656 657 655 655 654 653 654 656 657 660 662 665 668 670 673 676 679 682 685 689 692 696 700 703 705 708 713 718 723 726 730 734 738 741 744 747 749 751 755 758 761 765 767 769 772 774 777 779 781
728 729 728 728 729 729 726 723 718 710 709 711 702 690 686 686 690 694 700 712 717 709 705 711 706 686 671 668 668 668 668 665 659 658 660 658 656 655 654 653 653 652 652 652 653 655 656 658 660 662 664 667 670 674 677 680 683 687 691 694 697 700 705 710 714 718 722 726 730 733 735 738 741 744 747 750 754 757 760 762 764 767 769 772 775 777
730 731 730 732 734 737 739 736 730 727 728 723 712 703 696 688 683 687 695 702 703 705 703 696 689 684 676 671 669 667 667 665 658 656 657 656 654 652 651 651 651 650 650 649 649 651 653 655 656 657 659 661 664 668 672 675 678 681 685 688 692 697 701 706 710 714 718 721 724 727 730 732 735 739 743 746 749 752 755 757 759 761 764 767 770 772
733 735 731 734 737 738 739 734 727 728 731 726 719 712 704 695 686 684 687 686 687 700 703 686 681 686 680 671 668 664 663 662 657 655 653 651 651 651 651 652 651 650 649 648 649 650 651 652 652 653 655 656 659 664 667 671 674 676 679 683 687 692 696 700 704 708 712 716 719 722 724 727 731 735 739 742 745 747 750 752 755 757 760 763 764 766
737 739 733 734 738 735 734 730 724 725 725 720 717 713 706 700 693 685 681 678 679 689 689 678 678 684 677 668 664 658 654 652 648 647 647 648 649 649 648 649 649 648 647 647 647 646 647 647 647 648 649 651 654 658 662 666 670 673 676 679 683 687 689 693 698 701 706 709 711 714 718 723 728 731 734 738 740 743 745 748 750 753 756 758 759 761
736 738 733 734 737 733 729 727 723 722 722 717 713 710 705 700 694 686 681 677 675 677 674 671 676 678 669 660 654 648 647 648 645 645 647 648 647 645 645 645 644 645 645 644 643 642 642 641 641 642 644 647 650 653 657 661 664 668 671 674 678 681 684 689 693 696 700 702 703 708 714 719 722 726 730 732 735 738 740 743 746 749 751 752 754 756
736 737 733 733 738 734 726 723 722 721 722 719 712 706 702 698 693 686 680 675 675 676 672 669 675 676 665 654 649 646 648 651 650 647 646 646 645 645 645 644 642 642 641 640 639 639 639 639 639 640 643 645 646 647 651 654 658 662 666 670 673 675 679 685 688 691 694 695 698 705 710 714 717 721 724 727 729 732 735 739 742 744 746 747 749 751
739 739 735 735 741 736 725 723 724 719 716 712 703 697 694 692 687 679 673 669 668 672 674 671 672 671 663 654 651 648 647 649 648 645 644 645 646 646 645 642 639 637 637 637 637 637 637 637 637 638 639 639 640 642 645 648 652 657 660 663 666 670 675 680 683 686 688 691 697 702 705 708 713 716 719 721 724 727 730 734 736 738 740 742 744 747
741 739 736 737 742 736 725 725 725 721 715 703 691 688 685 679 675 670 665 661 657 661 667 665 659 656 653 652 652 649 646 644 642 643 644 643 643 644 643 640 637 635 635 636 636 635 634 633 633 633 632 633 634 636 637 640 645 648 650 654 659 664 670 674 676 680 683 688 693 696 699 703 707 710 713 715 718 722 725 728 730 731 734 736 739 742
740 739 736 735 739 737 727 724 726 725 717 698 683 684 684 680 678 674 664 656 652 650 649 647 645 645 646 649 649 646 642 640 639 642 645 644 643 644 644 642 640 637 636 635 633 631 629 628 628 628 628 629 630 631 634 637 639 641 645 650 656 661 665 668 671 674 678 683 687 690 694 699 701 704 708 710 714 718 720 722 723 725 728 731 734 736
741 740 736 733 736 734 726 727 731 723 706 688 678 679 679 678 681 676 660 649 646 644 643 644 644 642 642 644 641 636 637 640 641 644 645 645 645 644 643 642 641 639 637 634 632 628 626 625 625 625 625 626 628 631 636 639 640 643 647 651 655 658 661 664 667 670 674 678 682 686 690 694 696 700 703 706 710 713 715 717 718 720 723 725 728 729
742 741 735 731 733 731 729 734 730 711 692 683 680 679 676 675 679 676 661 648 645 647 647 646 643 639 639 639 636 635 639 642 643 644 644 643 643 643 643 642 640 639 637 634 632 627 623 621 620 620 622 624 627 631 634 637 640 644 647 650 652 655 657 661 664 667 670 675 678 682 685 688 692 695 698 701 705 707 709 712 713 715 718 720 722 723
737 738 733 730 728 726 728 729 722 710 699 689 685 685 683 684 686 687 681 666 653 650 649 645 640 637 637 638 638 640 641 642 644 645 643 641 641 640 640 639 638 638 635 632 629 625 621 618 617 617 619 621 624 627 630 633 637 641 644 647 650 653 655 658 660 663 666 670 672 676 679 683 686 689 693 696 699 700 703 705 707 710 713 715 717 718
731 733 729 726 722 719 722 723 722 721 710 694 688 687 685 684 682 686 691 679 658 653 654 649 642 637 636 639 643 643 643 646 649 646 640 640 640 639 639 637 636 635 633 630 626 622 618 617 616 616 617 619 621 624 627 631 635 638 641 644 647 650 653 655 657 659 662 664 667 670 674 678 681 685 689 692 693 694 697 699 702 705 707 710 711 713
729 730 728 727 723 718 719 721 722 720 703 687 686 686 681 679 679 683 690 679 661 660 662 656 649 641 635 637 641 643 646 650 650 644 639 640 640 639 638 637 635 633 631 628 625 622 618 616 615 616 617 619 621 623 626 630 633 636 638 641 644 647 650 651 653 655 657 659 662 666 670 674 678 681 684 685 686 688 690 693 697 700 704 706 708 710
730 731 733 734 728 718 715 715 713 707 693 682 684 683 676 673 677 685 687 675 663 664 662 657 654 648 640 638 638 637 639 642 640 637 637 639 639 638 637 636 634 633 630 627 624 622 619 616 616 618 620 620 621 623 625 628 631 634 636 638 641 643 644 645 647 650 653 656 660 664 667 670 673 675 677 677 679 682 685 689 693 697 700 703 706 709
730 730 731 732 727 718 713 711 706 697 686 680 682 680 672 670 677 685 683 673 668 666 660 655 655 650 644 642 637 632 631 633 633 634 637 638 638 637 636 635 634 632 630 628 626 623 621 619 619 621 622 622 623 623 625 627 629 632 634 637 640 639 637 639 644 648 652 656 659 661 663 666 668 669 670 672 676 681 684 687 691 694 697 700 703 706
727 726 725 726 724 718 711 709 706 695 682 678 679 675 670 674 683 684 677 672 672 667 660 657 655 649 644 642 641 638 635 634 635 636 637 638 637 638 637 635 634 633 632 630 628 626 624 623 623 624 625 625 625 625 626 627 629 631 633 635 635 634 636 641 645 649 653 656 657 659 660 662 663 665 668 671 675 679 682 685 689 691 693 696 699 701
724 724 722 717 715 715 713 710 706 694 681 676 676 675 675 682 685 681 676 673 670 667 664 660 655 651 645 642 646 648 643 638 638 637 638 638 637 637 637 635 634 633 632 631 630 629 628 627 626 628 628 627 627 627 629 630 631 632 634 634 633 635 639 643 645 648 651 653 655 657 658 659 661 663 665 668 671 675 678 681 684 687 689 690 692 694
721 721 719 708 702 707 709 701 690 681 676 673 674 676 679 681 678 677 677 674 667 665 665 662 657 653 649 645 648 652 649 646 643 640 640 640 638 637 636 635 634 633 632 632 631 631 630 629 629 630 630 630 630 630 631 632 633 635 636 637 638 639 641 641 643 645 647 649 651 653 655 657 659 661 662 664 666 669 671 674 677 679 682 684 685 686
715 714 716 712 704 702 699 689 678 673 672 672 671 673 675 675 674 675 676 673 668 664 663 662 659 657 652 648 648 650 652 651 648 644 641 640 638 637 635 634 634 633 632 631 632 632 632 632 631 632 632 632 633 634 634 634 635 637 639 640 640 640 640 641 642 642 643 644 646 648 650 652 655 656 658 660 662 664 665 667 670 672 675 676 677 677
712 712 715 713 707 702 693 683 677 674 671 671 671 670 670 672 674 675 674 673 670 666 664 662 660 658 656 651 648 649 651 651 650 647 644 641 639 637 635 634 633 632 631 630 630 631 632 632 633 633 634 636 637 637 638 638 638 639 641 641 640 640 640 641 641 641 642 642 643 644 646 648 650 652 653 656 657 659 660 663 665 666 667 669 670 670
713 715 716 713 709 705 694 680 673 673 672 670 670 667 665 670 675 675 674 673 669 665 665 662 658 657 656 653 650 649 649 650 651 651 649 646 643 640 637 636 635 634 632 631 630 630 629 630 631 633 635 638 639 639 640 640 640 641 641 641 640 640 640 640 641 642 643 644 644 645 646 646 646 648 650 652 654 656 658 659 661 662 662 663 664 666
718 718 719 716 710 703 692 680 674 673 669 667 667 665 664 671 677 675 672 671 667 665 664 661 658 657 657 657 655 651 649 650 653 654 654 652 648 644 641 639 638 637 636 634 633 632 631 631 633 634 635 637 638 640 640 641 641 641 641 641 641 640 640 640 641 642 644 645 646 647 648 648 647 647 648 649 650 652 654 655 656 656 655 654 654 657
722 723 722 719 714 706 696 686 679 676 671 668 667 664 663 670 678 677 671 668 668 667 665 661 658 657 659 662 660 655 650 650 651 654 656 655 652 648 645 642 641 640 639 637 636 635 635 636 636 637 637 638 639 639 639 640 641 641 641 641 641 641 641 642 642 643 644 645 645 646 647 648 649 649 649 649 648 648 648 648 649 649 648 646 646 646
723 722 717 717 716 707 695 685 679 675 673 671 669 665 663 669 677 677 670 667 669 671 668 663 658 655 657 663 665 660 653 649 649 654 657 657 655 651 647 644 642 641 641 641 640 639 639 639 639 640 640 641 640 640 640 640 641 641 642 642 642 642 642 643 643 644 644 645 645 646 646 646 646 647 648 648 648 646 645 645 645 645 645 644 644 644
719 716 711 712 708 695 684 681 680 674 669 667 667 665 664 667 673 675 671 669 672 674 671 665 659 656 658 665 670 665 655 647 648 655 660 661 658 653 648 645 643 643 643 643 642 641 641 642 641 641 642 642 642 642 642 642 642 642 642 642 642 642 642 642 642 643 643 644 644 644 644 645 645 645 645 646 646 645 645 644 643 642 642 642 644 645